Voltar ao catálogo

STARLINK-32016

AtivoComunicaçõesVLEO
NORAD 60096·PAYLOAD·🇺🇸 United States

Lançado Jun 23, 2024 de Cape Canaveral Space Force Station

Loading…

Próximas Passagens (próximas 24 horas)

TLE

AtualizadoSource: CelesTrak SupGP

Época: Sep 14, 2026, 21:00 UTC

1 60096C 24117F   26257.87548611  .00051733  00000+0  15277-2 0  2577
2 60096  53.1571 236.2273 0001316  87.5250 214.1772 15.34381039    10

Acompanhe STARLINK-32016 em tempo real com AllMySat

Download on the App Store